Home   Weather   Township of Fairfield   Past weeks
Flag for USA

Past Weather in Township of Fairfield, Pennsylvania, USA — Yesterday and Last 2 Weeks

Now
35 °F

Sunny.


Feels Like: 31 °F
Forecast: 36 / 24 °F
Wind: 5 mph from North

Location: New Castle, New Castle Municipal Airport

Current Time: Dec 7, 2019 at 3:08:51 pm

Latest Report: Dec 7, 2019 at 1:56 pm


Visibility: 10 mi

Pressure: 30.47 "Hg

Humidity: 52%

Dew Point: 19 °F

Location of Township of FairfieldLocation

Past Weather in Township of Fairfield — Graph

°F

Township of Fairfield Temperature Yesterday

Maximum temperature yesterday: 46 °F (at 11:56 am)
Minimum temperature yesterday: 30 °F (at 11:56 pm)
Average temperature yesterday: 36 °F

High & Low Weather Summary for the Past Weeks

 TemperatureHumidityPressure
High59 °F (Nov 26, 1:56 pm)100% (Dec 1, 9:20 am)30.52 "Hg (Dec 1, 9:20 am)
Low20 °F (Nov 23, 4:56 am)48% (Nov 26, 2:56 pm)29.39 "Hg (Dec 1, 2:20 pm)
Average36 °F81%29.93 "Hg
* Reported Nov 22 1:33 pm — Dec 7 1:56 pm, Township of Fairfield. Weather by CustomWeather, © 2019

Note: Actual official high and low records may vary slightly from our data, if they occured in-between our weather recording intervals... More about our weather records

Township of Fairfield Weather History for the Previous 24 Hours

Scroll right to see more
 ConditionsComfort  
Time TempWeatherWind HumidityBarometerVisibility
1:56 pm
Sat, Dec 7
35 °FSunny.5 mph52%30.47 "Hg10 mi
12:56 pm35 °FPassing clouds.6 mph56%30.49 "Hg10 mi
11:56 am34 °FOvercast.6 mph59%30.51 "Hg10 mi
11:08 am34 °FPartly sunny.5 mph60%30.43 "Hg10 mi
10:56 am33 °FScattered clouds.3 mph61%30.52 "Hg10 mi
9:56 am29 °FSunny.3 mph85%30.51 "Hg10 mi
8:56 am23 °FSunny.No wind96%30.49 "Hg10 mi
7:56 am20 °FSunny.No wind92%30.48 "Hg10 mi
6:56 am20 °FClear.3 mph96%30.45 "Hg10 mi
5:56 am21 °FPassing clouds.No wind88%30.44 "Hg10 mi
4:56 am23 °FClear.No wind85%30.42 "Hg10 mi
3:56 am25 °FPassing clouds.No wind81%30.41 "Hg10 mi
2:56 am28 °FPassing clouds.3 mph78%30.41 "Hg10 mi
1:56 am28 °FClear.3 mph75%30.39 "Hg10 mi
12:56 am29 °FClear.5 mph75%30.37 "Hg10 mi
11:56 pm
Fri, Dec 6
30 °FPassing clouds.5 mph82%30.36 "Hg10 mi
11:16 pm30 °FOvercast.6 mph86%30.29 "Hg10 mi
10:56 pm32 °FMostly cloudy.3 mph82%30.35 "Hg10 mi
10:28 pm32 °FMostly cloudy.3 mph80%30.28 "Hg10 mi
9:56 pm31 °FOvercast.No wind82%30.34 "Hg10 mi
8:56 pm32 °FOvercast.No wind79%30.32 "Hg10 mi
7:56 pm33 °FPassing clouds.6 mph75%30.32 "Hg10 mi
6:56 pm35 °FOvercast.8 mph70%30.29 "Hg10 mi
5:56 pm36 °FPartly cloudy.7 mph70%30.26 "Hg10 mi
5:26 pm37 °FMostly cloudy.12 mph70%30.18 "Hg10 mi
4:56 pm37 °FPassing clouds.5 mph70%30.22 "Hg10 mi
3:56 pm39 °FScattered clouds.9 mph65%30.18 "Hg10 mi
Weather by CustomWeather, © 2019

See weather overview

Advertising